Location: Aydie
(43.5695°N, 0.1043°W)
Time: 04:57:11
(UTC+00:00)

PSLV R/B - Pass Details

Date: 17 November 2025
Orbit: 561 x 590 km, 98.0° (Epoch: 04 December)

Event Time Altitude Azimuth Distance (km) Brightness Sun altitude
Rises 17:45:46 0° 140° (SE) 2,761 6.6 -13.1°
Reaches altitude 10° 17:48:05 10° 130° (SE) 1,863 5.7 -13.5°
Maximum altitude 17:51:37 30° 69° (ENE) 1,034 4.1 -14.2°
Drops below altitude 10° 17:55:08 10° 8° (N) 1,865 5.8 -14.8°
Sets 17:57:27 0° 358° (N) 2,764 6.8 -15.2°
